{"data":{"norad_id":65935,"intl_designator":"2025-225AB","name":"STARLINK-35155","alt_names":[],"object_type":"PAYLOAD","status":"ACTIVE","operator":null,"country":"US","launch_date":"2025-10-08","launch_site_code":"AFWTR","launch_vehicle":null,"mission":null,"orbit_class":"UNKNOWN","rcs_meters":null,"size_class":null,"mass_kg":null,"dimensions":null,"purposes":["comms"],"wikipedia_slug":null,"has_3d_model":false,"image_url":null,"decayed_at":null,"tle_current":{"epoch":"2026-05-25T02:13:52.371264Z","epoch_age_seconds":70502,"freshness":"FRESH","line1":"1 65935U 25225AB  26145.09296726  .00022248  00000+0  76072-3 0  9995","line2":"2 65935  53.1564 170.9435 0000935  65.0747 295.0350 15.30213008 35217","mean_motion":15.30213008,"eccentricity":9.35e-5,"inclination_deg":53.1564,"raan_deg":170.9435,"arg_perigee_deg":65.0747,"mean_anomaly_deg":295.035,"bstar":0.00076072,"rev_number":3521,"period_min":94.104545737857,"perigee_km":474.53544536415,"apogee_km":475.81701493819,"semimajor_km":6853.3132301512,"source":"CELESTRAK","updated_at":"2026-05-25T13:38:20.991614Z"}}}